SCP
0 0 0 0 0 0 0 0 0 0 0 0 0 0 0 0 0 0 0 0 0 0 0 0 0 0 0 0 0 0 0 0 0 0 0 0 0 0 0 0 0 0 0 0
0 -0 0 0 0 0 0 0 0 0 0 0 -0 -0 0 0 0 0 0 0 0 0 0 0 0 0 0 0 0 0 0 0 0 0 0 0 0 0 0 0 0 0 0 0
0 0 -0 0 0 0 0 0 0 0 0 0 0 0 0 0 0 0 0 0 0 0 0 0 0 0 0 0 0 0 0 0 0 0 0 0 0 0 0 0 0 0 0 0
-0 0 0 0 0 0 0 0 0 0 0 0 0 0 0 0 0 0 0 0 0 0 0 0 0 0 0 0 0 0 0 0 0 0 0 0 0 0 0 0 0 0 0 0
-0 -0 0 0 0 0 0 0 0 0 0 0 0 0 0 0 0 0 0 0 0 0 0 0 0 0 0 0 0 0 0 0 0 0 0 0 0 0 0 0 0 0 0 0
-0 -0 0 0 0 0 0 0 0 0 0 0 0 0 0 0 0 0 0 0 0 0 0 0 0 0 0 0 0 0 0 0 0 0 0 0 0 0 0 0 0 0 0 0
-0 -0 -0 -0 -0 0 0 0 0 0 0 0 0 0 0 0 0 0 0 0 0 0 0 0 0 0 0 0 0 0 0 0 0 0 0 0 0 0 0 0 0 0 0 0
-0 -0 -0 -0 0 0 0 -0 0 0 0 0 0 0 0 0 0 0 -0 -0 -0 -0 0 0 0 0 0 0 0 0 0 0 0 0 0 0 0 0 0 0 0 0 0 0
0 0 0 0 0 0 0 0 0 0 -0 0 0 0 0 0 0 0 0 0 0 0 0 0 -0 0 0 0 0 0 0 0 0 0 0 0 0 0 0 0 0 0 0 0
0 -0 -0 0 0 0 0 0 0 0 0 -0 -0 0 0 0 0 0 0 0 0 0 0 0 0 0 0 0 0 0 0 0 0 0 0 0 0 0 0 0 0 0 0 0
0 0 0 0 0 0 0 0 -0 -0 0 0 -0 -0 0 0 0 0 0 0 0 0 0 0 0 0 0 0 0 0 0 0 0 0 0 0 0 0 0 0 0 0 0 0
0 0 0 0 0 0 0 0 0 0 -0 -0 0 0 0 0 0 0 0 0 0 0 0 0 0 0 0 0 0 0 0 0 0 0 0 0 0 0 0 0 0 0 0 0
0 0 0 0 0 0 0 0 0 0 0 -0 -0 0 0 0 0 0 0 0 0 0 0 0 0 0 0 0 0 0 0 0 0 0 0 0 0 0 0 0 0 0 0 0
0 0 0 0 0 0 0 0 0 0 0 0 0 0 0 0 0 0 0 0 0 0 0 0 0 0 0 0 0 0 0 0 0 0 0 0 0 0 0 0 0 0 0 0
0 0 0 0 0 0 0 -0 0 0 0 0 0 0 0 0 0 0 0 0 -0 -0 0 -0 0 0 -0 0 0 0 0 0 0 0 0 0 0 0 0 0 0 0 0 0
0 0 0 0 0 0 0 0 0 0 0 0 0 0 0 0 0 0 0 0 0 0 0 -0 -0 -0 -0 0 0 0 0 0 0 0 0 0 0 0 0 0 0 0 0 0
0 0 0 0 0 0 0 0 0 0 0 0 0 0 0 0 0 0 0 -0 -0 0 0 0 0 -0 -0 0 0 0 0 0 0 0 0 0 0 0 0 0 0 0 0 0
0 0 0 0 0 0 0 0 0 0 0 0 0 0 0 0 0 0 0 0 -0 -0 0 0 0 0 0 0 0 0 0 0 0 0 0 0 0 0 0 0 0 0 0 0
0 0 0 0 0 0 0 0 0 0 0 0 0 0 0 0 0 0 0 0 0 0 0 0 0 0 0 0 0 0 0 0 0 0 0 0 0 0 0 0 0 0 0 0
0 0 0 0 0 0 0 0 0 0 0 0 0 0 0 0 0 0 0 0 0 0 0 0 0 0 0 0 0 0 0 0 0 0 0 0 0 0 0 0 0 0 0 0
0 0 0 0 0 0 0 0 0 0 0 0 -0 -0 -0 -0 0 0 -0 0 0 0 0 0 0 0 0 0 0 0 0 0 0 0 0 0 0 0 0 0 0 0 0 0
0 0 0 0 0 0 0 0 0 0 0 0 0 0 -0 -0 0 0 0 0 0 0 0 0 0 0 0 0 0 0 0 0 0 0 0 0 0 0 0 0 0 0 0 0
0 0 0 0 -0 0 0 0 0 0 0 0 0 0 -0 -0 0 0 0 0 0 0 0 0 0 0 0 0 0 0 0 0 0 0 0 0 0 0 0 0 0 0 0 0
0 0 0 0 -0 0 0 0 0 0 0 0 0 0 0 -0 -0 0 0 0 0 0 0 0 0 0 0 0 0 0 0 0 0 0 0 0 0 0 0 0 0 0 0 0
0 -0 -0 -0 -0 -0 -0 0 -0 0 0 0 0 0 0 0 0 0 0 0 0 0 0 0 0 0 0 0 0 0 0 0 0 0 0 0 0 0 0 0 0 0 0 0
-0 -0 -0 -0 -0 0 -0 -0 -0 -0 0 0 0 0 0 0 0 0 0 0 0 0 0 0 0 0 0 0 0 0 0 0 0 0 0 0 0 0 0 0 0 0 0 0
0 0 -0 -0 -0 -0 -0 -0 -0 -0 -0 -0 -0 0 0 0 0 0 0 0 0 0 0 0 0 0 0 0 0 0 0 0 0 0 0 0 0 0 0 0 0 0 0 0
Wind_Speed_500mb
25 13 15 36 45 49 39 52 32 29 18 7 8 5 2 4 12 24 25 26 28 30 31 36 42 47 51 61 67 69 72 77 80 77 74 70 67 63 56 53 52 50 49 46
14 5 9 7 31 37 37 38 36 1 13 1 4 2 11 10 16 26 28 27 27 26 26 27 30 38 45 53 62 63 66 70 74 74 73 71 66 63 59 56 54 53 52 49
6 16 1 7 5 23 34 31 32 22 18 2 6 10 15 15 22 25 31 32 30 28 26 24 25 29 38 49 56 59 62 68 71 72 73 70 66 65 63 59 56 56 55 52
5 9 6 3 13 19 6 7 10 16 16 16 10 6 22 26 31 30 33 35 33 28 28 26 26 28 31 39 50 58 63 66 68 70 70 70 69 68 64 62 59 59 56 53
6 4 9 1 6 1 6 14 20 11 20 17 11 10 10 10 19 21 19 21 23 24 23 24 25 26 30 37 44 52 58 63 67 70 71 71 72 71 68 65 63 60 57 56
5 5 5 6 10 11 9 6 20 13 18 22 16 14 15 17 20 17 16 15 13 13 13 13 15 21 28 32 38 46 53 58 60 64 67 69 69 69 69 65 61 60 59 54
10 7 10 9 14 1 3 5 14 28 18 5 8 6 5 24 18 16 19 16 13 10 7 8 13 18 24 28 29 30 38 46 53 59 64 65 65 68 67 65 61 60 58 55
6 6 10 1 8 6 8 27 8 23 20 29 20 27 32 25 20 14 6 5 11 13 15 16 17 22 22 22 24 30 33 41 49 53 58 62 64 65 68 66 65 63 62 60
14 9 6 8 6 10 5 8 10 9 19 25 25 26 27 32 29 26 22 11 11 17 11 6 10 13 18 25 26 27 32 35 41 49 55 60 64 68 72 71 69 69 68 67
4 11 16 21 25 27 30 28 15 12 12 14 7 9 27 27 30 28 23 20 14 6 6 9 5 1 9 17 20 21 23 30 39 45 54 59 64 70 75 76 77 76 75 73
11 17 13 38 43 50 46 37 42 35 23 20 17 14 22 30 42 41 34 29 25 20 14 7 4 3 1 5 7 14 22 25 31 43 50 57 64 71 78 78 79 81 79 74
14 19 20 26 34 44 46 50 51 49 34 22 16 23 27 30 30 46 48 46 43 36 29 19 15 12 8 4 3 6 9 17 33 40 49 56 63 69 75 78 76 72 69 68
25 41 33 48 49 50 49 53 59 62 58 50 43 36 33 38 42 44 50 56 53 55 47 38 26 25 21 18 14 11 10 14 20 39 45 53 64 71 77 79 78 75 72 69
51 45 32 49 31 32 36 55 60 61 57 51 45 40 38 37 37 42 48 59 60 62 60 51 40 38 30 32 30 27 23 21 23 26 36 46 58 68 74 78 80 83 81 77
45 43 50 53 44 44 40 35 41 51 54 48 41 43 45 48 47 48 49 52 56 64 68 61 56 50 46 45 43 40 36 34 32 31 30 36 48 57 67 74 77 79 80 79
45 48 49 45 39 32 23 22 17 17 25 30 36 40 45 45 45 49 49 50 56 64 67 68 68 68 62 56 56 54 50 48 45 41 37 40 46 55 61 70 75 81 83 84
52 43 46 38 34 29 26 21 21 21 26 23 27 33 39 40 39 42 46 49 59 68 69 71 73 70 75 72 69 65 62 59 55 51 51 50 53 56 63 68 74 80 82 83
47 46 39 37 36 34 29 30 32 32 33 33 35 40 41 42 43 42 43 47 58 67 77 79 74 71 73 74 71 69 66 64 62 60 57 59 59 61 63 69 72 75 78 79
48 46 45 42 42 41 38 36 36 38 38 37 40 43 42 41 41 46 49 49 54 61 62 57 59 60 64 66 65 64 66 68 67 64 62 61 64 64 67 69 72 73 76 77
39 38 38 36 36 34 35 37 38 37 36 39 41 44 45 40 41 44 46 52 50 54 48 41 45 53 58 60 63 64 66 67 69 69 67 65 65 66 67 70 71 72 75 78
26 26 28 29 29 31 34 36 36 36 37 39 42 45 50 49 44 45 50 54 44 41 42 44 43 47 52 54 56 59 62 64 67 69 70 67 65 66 68 70 72 72 73 76
22 23 24 28 31 34 34 37 40 43 44 43 45 48 53 53 49 54 57 57 44 41 36 35 39 42 47 50 50 51 51 55 58 59 62 65 66 67 69 70 72 74 71 74
18 20 21 24 31 35 34 35 38 43 48 49 50 51 57 60 63 60 60 53 51 46 42 45 44 40 46 48 51 52 52 53 53 56 57 62 68 68 66 69 71 72 71 77
17 19 22 26 32 36 40 32 39 43 47 49 55 55 59 64 68 72 68 57 52 51 48 52 52 41 46 49 57 61 60 58 54 54 57 59 63 67 66 68 70 75 77 77
22 25 28 32 37 39 41 40 44 41 45 49 50 53 61 66 73 70 66 58 45 47 51 50 55 58 52 56 60 63 62 62 58 55 57 61 62 67 68 69 75 76 77 77
24 29 34 36 41 43 43 42 47 43 44 50 50 49 53 61 70 72 73 67 64 59 53 50 54 58 61 59 61 60 63 66 65 60 57 61 65 69 72 69 71 73 76 76
27 33 37 39 35 38 40 40 45 45 40 47 55 44 46 54 62 65 65 64 64 59 57 54 56 58 60 60 59 59 61 62 63 62 57 63 70 66 68 67 71 75 75 78
Wind_Direction_500mb
281 270 288 211 197 211 220 225 222 219 212 236 359 340 42 114 146 127 128 136 147 157 167 176 181 185 190 192 192 193 195 195 194 194 197 198 198 198 198 197 196 195 192 191
8 317 34 295 223 209 216 224 240 114 224 30 95 75 89 113 145 123 125 128 134 143 155 167 177 184 188 189 190 192 194 193 192 194 197 198 198 198 199 197 195 194 193 195
344 330 208 269 317 227 219 220 225 217 226 210 144 144 120 126 112 112 119 119 119 123 131 145 160 174 182 185 185 189 191 191 191 194 196 197 197 198 199 198 196 195 195 194
283 306 253 332 279 259 269 248 265 273 258 218 199 107 129 110 115 112 110 110 106 106 113 129 142 156 170 180 185 187 189 191 193 194 196 197 198 199 199 199 199 198 196 195
298 341 310 159 348 250 224 156 23 296 241 232 159 142 150 105 140 121 110 110 108 103 108 121 129 145 164 175 183 188 191 193 194 195 197 198 199 200 200 200 199 199 198 196
329 254 249 166 200 231 186 136 14 337 250 229 166 195 181 173 145 140 132 116 88 79 101 121 144 157 163 174 184 190 194 196 198 200 201 202 203 202 202 201 202 200 199 198
264 282 290 230 185 226 0 72 21 39 35 246 211 340 278 151 137 149 165 172 173 182 191 177 177 183 191 184 180 184 193 196 199 200 201 202 203 204 203 202 201 201 201 200
162 274 269 218 130 308 334 154 156 120 86 31 42 82 86 71 58 56 85 157 186 188 187 174 171 184 192 185 182 181 187 195 197 199 200 202 204 203 202 203 202 201 201 201
210 221 339 352 354 0 21 2 350 32 83 110 359 350 13 26 16 15 22 43 81 86 85 146 190 192 161 167 174 185 188 193 200 200 200 203 203 204 202 204 205 204 204 203
200 242 250 278 293 306 316 324 320 315 337 357 36 306 311 318 325 348 345 355 15 5 24 49 23 158 195 191 193 197 194 195 197 202 202 201 202 204 206 207 207 208 208 206
247 276 297 279 286 297 303 310 306 305 289 276 282 258 235 274 286 299 307 316 314 318 335 322 278 292 108 178 189 207 213 212 208 207 206 207 207 207 210 214 217 213 212 212
227 228 229 263 274 287 289 293 300 301 292 281 276 268 261 245 251 272 277 291 290 288 302 308 279 266 263 249 248 251 240 228 224 217 213 211 213 212 214 218 221 223 226 226
239 253 250 266 279 279 284 285 286 287 284 279 277 270 257 247 253 258 254 269 271 273 278 290 286 265 270 270 259 260 271 263 249 231 220 219 218 218 218 218 219 222 224 225
241 249 263 266 261 273 272 288 283 273 270 267 264 257 253 256 260 257 258 252 261 266 268 272 274 267 269 266 267 268 268 259 257 252 242 230 224 223 224 223 221 220 220 219
249 252 260 268 267 263 279 299 280 267 262 263 257 261 255 257 256 258 260 260 261 261 260 262 263 254 262 266 266 272 272 269 266 262 256 244 231 227 228 229 226 226 224 221
261 257 264 263 259 259 276 303 295 270 258 250 251 249 250 249 248 252 257 256 255 257 258 259 257 258 262 260 257 256 261 268 269 266 261 254 242 232 228 228 228 228 225 223
245 246 248 245 246 257 268 281 252 244 243 251 248 238 241 245 253 260 262 271 265 257 253 255 255 255 256 255 252 252 255 259 263 265 260 253 250 245 236 231 229 228 228 225
237 239 242 247 251 251 249 251 254 252 251 247 246 252 257 260 267 274 274 279 279 267 255 250 252 255 254 251 252 251 254 258 260 258 256 255 249 247 245 238 234 231 229 226
237 241 246 251 256 261 264 264 260 259 260 264 263 263 262 264 269 274 277 282 279 270 260 255 251 248 250 249 251 251 253 255 257 256 253 251 251 247 244 242 238 234 232 226
237 241 246 251 259 265 266 268 269 268 265 265 266 269 271 269 269 269 267 268 275 264 257 249 243 239 242 242 244 250 252 253 254 255 255 252 248 248 245 242 238 235 233 229
233 239 247 254 258 265 268 271 272 269 268 268 269 267 266 262 260 263 262 264 267 273 256 245 242 240 237 238 242 246 250 251 250 250 252 252 249 245 243 241 239 235 233 231
236 249 258 265 268 267 267 268 269 269 269 267 266 269 270 269 262 254 254 259 259 269 267 257 254 247 244 241 240 242 248 251 249 246 246 249 249 246 242 241 239 237 233 232
256 266 275 283 282 282 280 277 274 270 269 269 265 262 264 269 271 267 260 254 256 251 253 264 259 254 253 248 248 247 244 246 248 245 245 246 245 244 244 241 239 237 234 230
277 288 296 296 293 292 290 284 277 275 276 274 272 268 263 258 256 263 267 264 258 246 242 243 254 249 250 252 250 249 250 244 241 243 243 246 246 245 241 241 238 234 232 231
290 296 300 304 304 302 297 296 288 284 278 273 266 263 263 261 259 258 260 264 257 246 247 245 248 253 241 241 245 245 247 250 243 242 243 244 244 243 241 237 237 235 233 231
302 302 301 301 302 301 297 291 289 289 287 283 278 272 263 257 257 257 252 249 251 247 242 243 244 245 246 242 243 246 245 246 246 243 246 249 244 241 241 239 238 236 234 230
302 303 300 297 298 299 298 295 292 293 289 286 286 282 269 257 253 253 251 247 241 243 237 237 240 245 246 246 244 244 245 246 247 243 245 247 247 245 243 238 236 232 231 228
Wind_Speed_850mb
25 13 15 36 45 49 39 52 32 29 18 7 8 5 2 4 12 24 25 26 28 30 31 36 42 47 51 61 67 69 72 77 80 77 74 70 67 63 56 53 52 50 49 46
14 5 9 7 31 37 37 38 36 1 13 1 4 2 11 10 16 26 28 27 27 26 26 27 30 38 45 53 62 63 66 70 74 74 73 71 66 63 59 56 54 53 52 49
6 16 1 7 5 23 34 31 32 22 18 2 6 10 15 15 22 25 31 32 30 28 26 24 25 29 38 49 56 59 62 68 71 72 73 70 66 65 63 59 56 56 55 52
5 9 6 3 13 19 6 7 10 16 16 16 10 6 22 26 31 30 33 35 33 28 28 26 26 28 31 39 50 58 63 66 68 70 70 70 69 68 64 62 59 59 56 53
6 4 9 1 6 1 6 14 20 11 20 17 11 10 10 10 19 21 19 21 23 24 23 24 25 26 30 37 44 52 58 63 67 70 71 71 72 71 68 65 63 60 57 56
5 5 5 6 10 11 9 6 20 13 18 22 16 14 15 17 20 17 16 15 13 13 13 13 15 21 28 32 38 46 53 58 60 64 67 69 69 69 69 65 61 60 59 54
10 7 10 9 14 1 3 5 14 28 18 5 8 6 5 24 18 16 19 16 13 10 7 8 13 18 24 28 29 30 38 46 53 59 64 65 65 68 67 65 61 60 58 55
6 6 10 1 8 6 8 27 8 23 20 29 20 27 32 25 20 14 6 5 11 13 15 16 17 22 22 22 24 30 33 41 49 53 58 62 64 65 68 66 65 63 62 60
14 9 6 8 6 10 5 8 10 9 19 25 25 26 27 32 29 26 22 11 11 17 11 6 10 13 18 25 26 27 32 35 41 49 55 60 64 68 72 71 69 69 68 67
4 11 16 21 25 27 30 28 15 12 12 14 7 9 27 27 30 28 23 20 14 6 6 9 5 1 9 17 20 21 23 30 39 45 54 59 64 70 75 76 77 76 75 73
11 17 13 38 43 50 46 37 42 35 23 20 17 14 22 30 42 41 34 29 25 20 14 7 4 3 1 5 7 14 22 25 31 43 50 57 64 71 78 78 79 81 79 74
14 19 20 26 34 44 46 50 51 49 34 22 16 23 27 30 30 46 48 46 43 36 29 19 15 12 8 4 3 6 9 17 33 40 49 56 63 69 75 78 76 72 69 68
25 41 33 48 49 50 49 53 59 62 58 50 43 36 33 38 42 44 50 56 53 55 47 38 26 25 21 18 14 11 10 14 20 39 45 53 64 71 77 79 78 75 72 69
51 45 32 49 31 32 36 55 60 61 57 51 45 40 38 37 37 42 48 59 60 62 60 51 40 38 30 32 30 27 23 21 23 26 36 46 58 68 74 78 80 83 81 77
45 43 50 53 44 44 40 35 41 51 54 48 41 43 45 48 47 48 49 52 56 64 68 61 56 50 46 45 43 40 36 34 32 31 30 36 48 57 67 74 77 79 80 79
45 48 49 45 39 32 23 22 17 17 25 30 36 40 45 45 45 49 49 50 56 64 67 68 68 68 62 56 56 54 50 48 45 41 37 40 46 55 61 70 75 81 83 84
52 43 46 38 34 29 26 21 21 21 26 23 27 33 39 40 39 42 46 49 59 68 69 71 73 70 75 72 69 65 62 59 55 51 51 50 53 56 63 68 74 80 82 83
47 46 39 37 36 34 29 30 32 32 33 33 35 40 41 42 43 42 43 47 58 67 77 79 74 71 73 74 71 69 66 64 62 60 57 59 59 61 63 69 72 75 78 79
48 46 45 42 42 41 38 36 36 38 38 37 40 43 42 41 41 46 49 49 54 61 62 57 59 60 64 66 65 64 66 68 67 64 62 61 64 64 67 69 72 73 76 77
39 38 38 36 36 34 35 37 38 37 36 39 41 44 45 40 41 44 46 52 50 54 48 41 45 53 58 60 63 64 66 67 69 69 67 65 65 66 67 70 71 72 75 78
26 26 28 29 29 31 34 36 36 36 37 39 42 45 50 49 44 45 50 54 44 41 42 44 43 47 52 54 56 59 62 64 67 69 70 67 65 66 68 70 72 72 73 76
22 23 24 28 31 34 34 37 40 43 44 43 45 48 53 53 49 54 57 57 44 41 36 35 39 42 47 50 50 51 51 55 58 59 62 65 66 67 69 70 72 74 71 74
18 20 21 24 31 35 34 35 38 43 48 49 50 51 57 60 63 60 60 53 51 46 42 45 44 40 46 48 51 52 52 53 53 56 57 62 68 68 66 69 71 72 71 77
17 19 22 26 32 36 40 32 39 43 47 49 55 55 59 64 68 72 68 57 52 51 48 52 52 41 46 49 57 61 60 58 54 54 57 59 63 67 66 68 70 75 77 77
22 25 28 32 37 39 41 40 44 41 45 49 50 53 61 66 73 70 66 58 45 47 51 50 55 58 52 56 60 63 62 62 58 55 57 61 62 67 68 69 75 76 77 77
24 29 34 36 41 43 43 42 47 43 44 50 50 49 53 61 70 72 73 67 64 59 53 50 54 58 61 59 61 60 63 66 65 60 57 61 65 69 72 69 71 73 76 76
27 33 37 39 35 38 40 40 45 45 40 47 55 44 46 54 62 65 65 64 64 59 57 54 56 58 60 60 59 59 61 62 63 62 57 63 70 66 68 67 71 75 75 78
Wind_Direction_850mb
281 270 288 211 197 211 220 225 222 219 212 236 359 340 42 114 146 127 128 136 147 157 167 176 181 185 190 192 192 193 195 195 194 194 197 198 198 198 198 197 196 195 192 191
8 317 34 295 223 209 216 224 240 114 224 30 95 75 89 113 145 123 125 128 134 143 155 167 177 184 188 189 190 192 194 193 192 194 197 198 198 198 199 197 195 194 193 195
344 330 208 269 317 227 219 220 225 217 226 210 144 144 120 126 112 112 119 119 119 123 131 145 160 174 182 185 185 189 191 191 191 194 196 197 197 198 199 198 196 195 195 194
283 306 253 332 279 259 269 248 265 273 258 218 199 107 129 110 115 112 110 110 106 106 113 129 142 156 170 180 185 187 189 191 193 194 196 197 198 199 199 199 199 198 196 195
298 341 310 159 348 250 224 156 23 296 241 232 159 142 150 105 140 121 110 110 108 103 108 121 129 145 164 175 183 188 191 193 194 195 197 198 199 200 200 200 199 199 198 196
329 254 249 166 200 231 186 136 14 337 250 229 166 195 181 173 145 140 132 116 88 79 101 121 144 157 163 174 184 190 194 196 198 200 201 202 203 202 202 201 202 200 199 198
264 282 290 230 185 226 0 72 21 39 35 246 211 340 278 151 137 149 165 172 173 182 191 177 177 183 191 184 180 184 193 196 199 200 201 202 203 204 203 202 201 201 201 200
162 274 269 218 130 308 334 154 156 120 86 31 42 82 86 71 58 56 85 157 186 188 187 174 171 184 192 185 182 181 187 195 197 199 200 202 204 203 202 203 202 201 201 201
210 221 339 352 354 0 21 2 350 32 83 110 359 350 13 26 16 15 22 43 81 86 85 146 190 192 161 167 174 185 188 193 200 200 200 203 203 204 202 204 205 204 204 203
200 242 250 278 293 306 316 324 320 315 337 357 36 306 311 318 325 348 345 355 15 5 24 49 23 158 195 191 193 197 194 195 197 202 202 201 202 204 206 207 207 208 208 206
247 276 297 279 286 297 303 310 306 305 289 276 282 258 235 274 286 299 307 316 314 318 335 322 278 292 108 178 189 207 213 212 208 207 206 207 207 207 210 214 217 213 212 212
227 228 229 263 274 287 289 293 300 301 292 281 276 268 261 245 251 272 277 291 290 288 302 308 279 266 263 249 248 251 240 228 224 217 213 211 213 212 214 218 221 223 226 226
239 253 250 266 279 279 284 285 286 287 284 279 277 270 257 247 253 258 254 269 271 273 278 290 286 265 270 270 259 260 271 263 249 231 220 219 218 218 218 218 219 222 224 225
241 249 263 266 261 273 272 288 283 273 270 267 264 257 253 256 260 257 258 252 261 266 268 272 274 267 269 266 267 268 268 259 257 252 242 230 224 223 224 223 221 220 220 219
249 252 260 268 267 263 279 299 280 267 262 263 257 261 255 257 256 258 260 260 261 261 260 262 263 254 262 266 266 272 272 269 266 262 256 244 231 227 228 229 226 226 224 221
261 257 264 263 259 259 276 303 295 270 258 250 251 249 250 249 248 252 257 256 255 257 258 259 257 258 262 260 257 256 261 268 269 266 261 254 242 232 228 228 228 228 225 223
245 246 248 245 246 257 268 281 252 244 243 251 248 238 241 245 253 260 262 271 265 257 253 255 255 255 256 255 252 252 255 259 263 265 260 253 250 245 236 231 229 228 228 225
237 239 242 247 251 251 249 251 254 252 251 247 246 252 257 260 267 274 274 279 279 267 255 250 252 255 254 251 252 251 254 258 260 258 256 255 249 247 245 238 234 231 229 226
237 241 246 251 256 261 264 264 260 259 260 264 263 263 262 264 269 274 277 282 279 270 260 255 251 248 250 249 251 251 253 255 257 256 253 251 251 247 244 242 238 234 232 226
237 241 246 251 259 265 266 268 269 268 265 265 266 269 271 269 269 269 267 268 275 264 257 249 243 239 242 242 244 250 252 253 254 255 255 252 248 248 245 242 238 235 233 229
233 239 247 254 258 265 268 271 272 269 268 268 269 267 266 262 260 263 262 264 267 273 256 245 242 240 237 238 242 246 250 251 250 250 252 252 249 245 243 241 239 235 233 231
236 249 258 265 268 267 267 268 269 269 269 267 266 269 270 269 262 254 254 259 259 269 267 257 254 247 244 241 240 242 248 251 249 246 246 249 249 246 242 241 239 237 233 232
256 266 275 283 282 282 280 277 274 270 269 269 265 262 264 269 271 267 260 254 256 251 253 264 259 254 253 248 248 247 244 246 248 245 245 246 245 244 244 241 239 237 234 230
277 288 296 296 293 292 290 284 277 275 276 274 272 268 263 258 256 263 267 264 258 246 242 243 254 249 250 252 250 249 250 244 241 243 243 246 246 245 241 241 238 234 232 231
290 296 300 304 304 302 297 296 288 284 278 273 266 263 263 261 259 258 260 264 257 246 247 245 248 253 241 241 245 245 247 250 243 242 243 244 244 243 241 237 237 235 233 231
302 302 301 301 302 301 297 291 289 289 287 283 278 272 263 257 257 257 252 249 251 247 242 243 244 245 246 242 243 246 245 246 246 243 246 249 244 241 241 239 238 236 234 230
302 303 300 297 298 299 298 295 292 293 289 286 286 282 269 257 253 253 251 247 241 243 237 237 240 245 246 246 244 244 245 246 247 243 245 247 247 245 243 238 236 232 231 228